Waarnemingen

Advertentie
Mijn weer
Socoa, Frankrijk (7600): temperatuur & dauwpunt: 14.08.2017 00:00:00 - 20.08.2017 00:00:00 (CEST)Socoa, Frankrijk (7600): windsnelheid & windstoten: 14.08.2017 00:00:00 - 20.08.2017 00:00:00 (CEST)Socoa, Frankrijk (7600): windrichting: 14.08.2017 00:00:00 - 20.08.2017 00:00:00 (CEST)Socoa, Frankrijk (7600): luchtdruk: 14.08.2017 00:00:00 - 20.08.2017 00:00:00 (CEST)Socoa, Frankrijk (7600): zicht: 14.08.2017 00:00:00 - 20.08.2017 00:00:00 (CEST)Socoa, Frankrijk (7600): neerslag: 14.08.2017 00:00:00 - 20.08.2017 00:00:00 (CEST)
Datum & Tijd tt [°C] td [°C] ff [km/u] ff [kn] fx [km/u] fx [kn] dd ppp [hPa] vv [km] rr [mm]
20.08.2017 00:00:00 19,3 12,3 11 6 26 14 N 1026,3 - 0,0
19.08.2017 23:00:00 19,3 12,3 14 8 27 14 N 1025,8 - 0,0
19.08.2017 22:00:00 19,3 12,1 13 7 22 12 N 1025,3 - 0,0
19.08.2017 21:00:00 19,7 12,7 17 9 25 13 N 1024,9 - 0,0
19.08.2017 20:00:00 20,5 13,2 14 8 31 17 N 1024,6 25 0,0
19.08.2017 19:00:00 20,9 13,3 24 13 33 18 N 1024,4 - 0,0
19.08.2017 18:00:00 21,4 13,1 22 12 31 17 N 1024,4 - 0,0
19.08.2017 17:00:00 21,9 13,3 22 12 34 18 N 1024,3 20 0,0
19.08.2017 16:00:00 22,0 13,9 24 13 32 18 N 1024,5 - 0,0
19.08.2017 15:00:00 22,2 15,3 23 12 32 17 N 1024,3 - 0,0
19.08.2017 14:00:00 22,2 16,0 22 12 29 16 N 1024,2 20 0,0
19.08.2017 13:00:00 22,2 15,8 23 13 28 15 NNO 1024,1 - 0,0
19.08.2017 12:00:00 21,2 15,9 15 8 22 12 NNO 1024,3 - 0,0
19.08.2017 11:00:00 22,3 15,4 13 7 24 13 O 1024,5 - 0,0
19.08.2017 10:00:00 20,9 16,1 9 5 19 10 O 1024,5 - 0,0
19.08.2017 09:00:00 18,9 17,2 9 5 15 8 O 1024,1 - 0,0
19.08.2017 08:00:00 17,6 16,5 6 4 11 6 OZO 1023,6 20 0,0
19.08.2017 07:00:00 17,9 16,6 8 4 20 11 ZO 1023,1 - 0,0
19.08.2017 06:00:00 18,6 17,1 14 7 22 12 OZO 1022,8 - 0,0
19.08.2017 05:00:00 18,8 17,3 15 8 21 12 OZO 1023,0 20 0,0
19.08.2017 04:00:00 19,2 17,7 10 5 16 9 OZO 1023,2 - 0,0
19.08.2017 03:00:00 19,2 17,9 8 5 26 14 O 1023,3 - 0,2
19.08.2017 02:00:00 18,8 17,8 5 3 7 4 ZZO 1023,2 20 0,0
19.08.2017 01:00:00 18,6 17,4 4 2 9 5 Z 1023,3 - 0,0
19.08.2017 00:00:00 19,2 17,5 8 4 10 5 ZW 1023,4 - 0,0
18.08.2017 23:00:00 20,0 17,2 4 2 21 12 ZZW 1023,3 20 0,0
18.08.2017 22:00:00 20,9 17,9 18 10 23 12 NNW 1023,1 - 0,0
18.08.2017 21:00:00 21,3 18,1 7 4 11 6 NW 1022,3 - 0,0
18.08.2017 20:00:00 21,8 17,6 5 3 10 6 NW 1022,2 - 0,0
18.08.2017 19:00:00 22,9 18,4 7 4 14 8 W 1022,4 - 0,0
18.08.2017 18:00:00 21,5 17,9 9 5 18 10 WNW 1022,3 - 0,0
18.08.2017 17:00:00 21,3 18,1 13 7 28 15 NW 1022,2 - 0,0
18.08.2017 16:00:00 21,1 19,7 17 9 33 18 NNW 1021,9 - 0,8
18.08.2017 15:00:00 22,7 19,1 6 4 13 7 WZW 1021,7 - 0,0
18.08.2017 14:00:00 22,3 18,7 8 4 16 9 WZW 1021,5 - 0,0
18.08.2017 13:00:00 22,2 19,2 9 5 16 9 ZZW 1021,3 - 0,0
18.08.2017 12:00:00 20,8 19,3 11 6 21 11 ZW 1021,2 - 0,0
18.08.2017 11:00:00 21,1 18,8 11 6 16 9 W 1020,7 13 0,0
18.08.2017 10:00:00 21,0 18,9 12 7 17 9 W 1020,3 13 0,0
18.08.2017 09:00:00 20,4 18,5 7 4 10 5 WZW 1019,9 - 0,0
18.08.2017 08:00:00 20,2 18,7 6 3 12 6 WZW 1019,3 13 0,0
18.08.2017 07:00:00 20,1 18,8 10 5 14 8 Z 1018,9 - 0,0
18.08.2017 06:00:00 19,9 18,2 10 5 17 9 ZZW 1019,3 - 0,0
18.08.2017 05:00:00 19,9 18,4 9 5 12 7 ZW 1019,6 20 0,0
18.08.2017 04:00:00 19,7 18,4 11 6 14 8 ZW 1019,7 - 0,0
18.08.2017 03:00:00 19,2 17,5 7 4 13 7 ZW 1019,8 - 0,0
18.08.2017 02:00:00 19,6 17,9 8 4 11 6 W 1020,1 - 0,0
18.08.2017 01:00:00 20,2 18,0 5 3 10 5 ZW 1020,0 - 0,0
18.08.2017 00:00:00 20,5 17,9 4 2 14 7 WZW 1019,9 - 0,0
17.08.2017 23:00:00 21,7 19,3 9 5 18 10 NNW 1019,7 25 0,0
17.08.2017 22:00:00 21,8 17,0 9 5 18 10 N 1019,3 - 0,0
17.08.2017 21:00:00 22,4 17,7 10 5 19 11 NNO 1019,1 - 0,0
17.08.2017 20:00:00 23,9 18,1 9 5 14 8 NNO 1019,3 25 0,0
17.08.2017 19:00:00 25,0 17,7 4 2 12 6 ONO 1019,8 - 0,0
17.08.2017 18:00:00 25,2 18,4 8 5 22 12 N 1020,6 - 0,0
17.08.2017 17:00:00 25,2 18,2 13 7 19 10 N 1020,8 - 0,0
17.08.2017 16:00:00 24,2 17,9 16 8 23 12 NW 1021,0 - 0,0
17.08.2017 15:00:00 24,6 17,3 16 9 21 12 NW 1021,2 - 0,0
17.08.2017 14:00:00 25,0 17,7 10 6 18 10 NNW 1021,6 - 0,0
17.08.2017 13:00:00 24,5 17,5 15 8 20 11 NNW 1021,9 - 0,0
17.08.2017 12:00:00 24,2 17,4 8 4 10 5 NNW 1022,2 - 0,0
17.08.2017 11:00:00 23,3 17,3 6 4 10 5 NW 1022,4 - 0,0
17.08.2017 10:00:00 21,7 16,6 2 1 11 6 NNW 1022,1 - 0,0
17.08.2017 09:00:00 18,3 17,1 3 2 11 6 ZZW 1021,9 - 0,2
17.08.2017 08:00:00 16,2 15,4 12 7 19 10 Z 1021,5 20 0,0
17.08.2017 07:00:00 15,6 14,8 13 7 19 10 Z 1021,2 - 0,0
17.08.2017 06:00:00 15,5 14,7 6 3 10 5 ZZO 1021,3 - 0,0
17.08.2017 05:00:00 16,2 15,2 8 4 15 8 Z 1021,4 25 0,0
17.08.2017 04:00:00 16,3 15,3 7 4 13 7 ZO 1021,6 - 0,0
17.08.2017 03:00:00 16,7 15,6 5 3 11 6 ZZO 1021,9 - 0,0
17.08.2017 02:00:00 17,2 16,1 7 4 10 6 ZZO 1022,4 - 0,0
17.08.2017 01:00:00 17,7 16,2 9 5 14 8 Z 1022,9 - 0,0
17.08.2017 00:00:00 18,2 16,4 4 2 12 7 ZZO 1023,2 - 0,0
16.08.2017 23:00:00 18,9 16,9 9 5 12 6 Z 1023,4 25 0,0
16.08.2017 22:00:00 20,4 17,2 6 3 14 7 NNO 1023,5 - 0,0
16.08.2017 21:00:00 21,0 16,8 9 5 14 7 NNO 1022,9 - 0,0
16.08.2017 20:00:00 22,5 16,1 9 5 12 7 NNO 1022,5 25 0,0
16.08.2017 19:00:00 24,1 16,1 5 3 13 7 N 1022,7 - 0,0
16.08.2017 18:00:00 23,8 16,1 11 6 19 10 NNW 1023,1 - 0,0
16.08.2017 17:00:00 24,4 16,4 10 5 16 9 N 1022,8 - 0,0
16.08.2017 16:00:00 23,4 16,0 14 7 19 10 NNW 1022,8 - 0,0
16.08.2017 15:00:00 22,8 16,6 11 6 18 10 NNW 1022,8 - 0,0
16.08.2017 14:00:00 22,2 16,9 10 5 17 9 NNW 1022,9 - 0,0
16.08.2017 13:00:00 22,2 17,1 14 7 18 10 NNW 1023,0 - 0,0
16.08.2017 12:00:00 24,1 17,6 8 4 11 6 N 1022,7 - 0,0
16.08.2017 11:00:00 21,2 16,6 3 2 13 7 NO 1022,8 20 0,0
16.08.2017 10:00:00 19,8 17,0 7 4 12 7 Z 1022,6 - 0,0
16.08.2017 09:00:00 19,4 17,0 5 3 13 7 ZO 1022,7 - 0,0
16.08.2017 08:00:00 19,3 17,3 9 5 18 10 O 1022,3 15 0,0
16.08.2017 07:00:00 19,8 17,0 5 3 13 7 OZO 1021,8 - 0,0
16.08.2017 06:00:00 19,8 17,0 8 4 15 8 OZO 1021,3 - 0,0
16.08.2017 05:00:00 19,9 17,5 7 4 14 8 O 1021,2 20 0,0
16.08.2017 04:00:00 20,0 17,8 5 3 8 4 ZZO 1021,5 - 0,0
16.08.2017 03:00:00 20,2 18,0 5 3 13 7 Z 1021,8 - 0,0
16.08.2017 02:00:00 20,6 17,6 8 4 12 7 NO 1022,4 - 0,0
16.08.2017 01:00:00 20,7 17,5 9 5 15 8 N 1022,8 - 0,0
16.08.2017 00:00:00 20,7 17,3 9 5 18 10 N 1022,7 - 0,0
15.08.2017 23:00:00 20,8 17,6 14 7 18 10 NNW 1022,4 20 0,0
15.08.2017 22:00:00 20,8 18,4 13 7 17 9 W 1022,0 - 0,0
15.08.2017 21:00:00 21,0 18,0 8 5 14 8 WNW 1021,6 - 0,0
15.08.2017 20:00:00 21,4 18,0 4 2 9 5 WZW 1021,3 20 0,0
15.08.2017 19:00:00 21,8 18,2 8 5 15 8 WZW 1021,2 - 0,0
15.08.2017 18:00:00 21,6 18,0 10 5 18 10 WNW 1021,2 - 0,0
15.08.2017 17:00:00 21,6 17,6 13 7 23 12 NW 1021,0 20 0,0
15.08.2017 16:00:00 21,8 17,8 15 8 22 12 NW 1020,8 - 0,0
15.08.2017 15:00:00 21,9 17,5 16 9 21 12 NW 1020,5 - 0,0
15.08.2017 14:00:00 22,6 17,7 14 8 18 10 NW 1020,0 - 0,0
15.08.2017 13:00:00 22,8 17,9 10 6 16 9 NW 1019,6 - 0,0
15.08.2017 12:00:00 22,1 18,3 12 7 17 9 NW 1019,7 - 0,0
15.08.2017 11:00:00 21,6 18,4 12 7 19 10 NNW 1019,5 - 0,4
15.08.2017 10:00:00 21,3 18,5 16 9 21 12 NW 1019,3 - 0,0
15.08.2017 09:00:00 21,4 19,3 16 9 21 12 W 1019,1 - 0,0
15.08.2017 08:00:00 21,4 19,5 10 5 16 8 W 1018,3 8 0,0
15.08.2017 07:00:00 21,2 19,1 11 6 15 8 WNW 1017,9 - 0,0
15.08.2017 06:00:00 21,3 19,4 11 6 17 9 WNW 1017,8 - 0,0
15.08.2017 05:00:00 21,4 19,3 9 5 21 11 WNW 1018,0 - 0,0
15.08.2017 04:00:00 21,5 19,6 18 10 29 16 W 1017,8 - 0,0
15.08.2017 03:00:00 21,4 19,5 16 9 24 13 W 1017,7 - 0,0
15.08.2017 02:00:00 21,5 19,8 15 8 27 15 W 1018,0 20 0,0
15.08.2017 01:00:00 21,6 19,9 21 12 34 19 W 1017,7 - 0,0
15.08.2017 00:00:00 21,8 20,1 21 11 29 16 W 1017,4 - 0,0
14.08.2017 23:00:00 22,3 20,0 13 7 41 22 W 1017,5 20 0,0
14.08.2017 22:00:00 22,7 18,7 22 12 63 34 W 1015,5 - 0,0
14.08.2017 21:00:00 23,3 18,8 39 21 63 34 WZW 1014,4 - 0,0
14.08.2017 20:00:00 25,0 19,1 42 23 64 35 WZW 1012,0 20 0,0
14.08.2017 19:00:00 33,4 21,2 16 8 22 12 O 1010,4 - 0,0
14.08.2017 18:00:00 35,6 16,8 16 9 23 12 O 1010,3 - 0,0
14.08.2017 17:00:00 36,2 16,4 13 7 21 11 OZO 1010,7 - 0,0
14.08.2017 16:00:00 36,6 14,6 10 5 29 16 OZO 1011,1 - 0,0
14.08.2017 15:00:00 35,3 15,1 17 9 35 19 ZZO 1011,9 - 0,0
14.08.2017 14:00:00 33,5 16,8 16 8 39 21 Z 1012,5 20 0,0
14.08.2017 13:00:00 27,6 20,2 21 11 27 15 NO 1013,0 - 0,0
14.08.2017 12:00:00 27,0 20,3 15 8 23 13 NO 1013,3 - 0,0
14.08.2017 11:00:00 25,0 19,4 7 4 13 7 NO 1013,7 18 0,0
14.08.2017 10:00:00 21,7 17,7 3 2 14 8 NO 1013,9 - 0,0
14.08.2017 09:00:00 19,5 17,6 11 6 16 9 OZO 1014,5 - 0,0
14.08.2017 08:00:00 16,5 15,7 8 5 16 8 ZO 1014,8 15 0,0
14.08.2017 07:00:00 16,4 15,4 9 5 13 7 OZO 1014,9 - 0,0
14.08.2017 06:00:00 16,7 15,6 5 3 11 6 ZO 1015,4 - 0,0
14.08.2017 05:00:00 17,2 16,1 10 5 13 7 Z 1015,9 - 0,0
14.08.2017 04:00:00 17,8 16,1 11 6 19 11 ZZW 1016,4 - 0,0
14.08.2017 03:00:00 18,3 16,3 14 8 20 11 ZZW 1016,8 - 0,0
14.08.2017 02:00:00 18,7 16,5 14 8 20 11 ZW 1017,3 - 0,0
14.08.2017 01:00:00 19,2 16,8 14 7 18 10 ZZW 1017,7 - 0,0
14.08.2017 00:00:00 19,3 17,3 12 7 16 9 ZW 1018,1 - 0,0

tt = temperatuur
td = dauwpunt
ff = windsnelheid
fx = windstoten
dd = windrichting
ppp = luchtdruk
vv = zicht
rr = neerslag

Weerstations in de omgeving